Altus AFB, OK

12:16 PM CDT on May 27, 2017 (GMT -0500)
Altus Air Force Base

Weather History for KLTS - November, 2011

Change the Weather History Date:

Sunday, November 6, 2011

  Actual Average Record
Temperature  
Mean Temperature 58 °F -  
Max Temperature 74 °F 62 °F 80 °F (2001)
Min Temperature 42 °F 41 °F 33 °F (1997)
Degree Days  
Heating Degree Days 7    
Growing Degree Days 8 (Base 50)    
Moisture  
Dew Point 39 °F    
Average Humidity 58    
Maximum Humidity 99    
Minimum Humidity 20    
Precipitation  
Precipitation 0.00 in - - ()
Sea Level Pressure  
Sea Level Pressure 29.89 in    
Wind  
Wind Speed 9 mph (South)    
Max Wind Speed 16 mph    
Max Gust Speed -    
Visibility 10 miles    
Events      
Averages and records for this station are not official NWS values.
T = Trace of Precipitation, MM = Missing Value Source: NWS Daily Summary

Daily Weather History Graph

Daily Weather History Graph

Search for Another Location

Airport or City:

Trip Planner

Search our weather history database for the weather conditions in past years. The results will help you decide how hot, cold, wet, or windy it might be!

Date:

Astronomy

Nov. 06, 2011 Rise Set
Actual Time 7:02 AM CST 5:38 PM CST
Civil Twilight 6:35 AM CST 6:05 PM CST
Nautical Twilight 6:05 AM CST 6:35 PM CST
Astronomical Twilight 5:36 AM CST 7:04 PM CST
Moon 3:17 PM CST (11/6) 3:17 AM CST (11/6)
Length of Visible Light 11h 29m
Length of Day
10h 36m
Waxing Gibbous, 86% of the Moon is Illuminated
Nov 6
Waxing Gibbous
Nov 10
Full
Nov 18
Last Quarter
Nov 25
New
Dec 2
First Quarter

Hourly Weather History & Observations

Time (CST) Temp. Dew Point Humidity Pressure Visibility Wind Dir Wind Speed Gust Speed Precip Events Conditions
12:55 AM 55.8 °F 48.2 °F 76% 29.75 in 10.0 mi SSE 15.0 mph - N/A   Clear
1:55 AM 56.3 °F 49.3 °F 77% 29.76 in 10.0 mi South 15.0 mph - N/A   Clear
1:55 AM 53.1 °F 48.9 °F 86% 29.78 in 10.0 mi South 10.4 mph - N/A   Clear
2:55 AM 53.1 °F 48.9 °F 86% 29.81 in 10.0 mi SSW 8.1 mph - N/A   Clear
3:55 AM 50.0 °F 47.1 °F 90% 29.83 in 10.0 mi SSW 5.8 mph - N/A   Clear
4:55 AM 48.9 °F 46.9 °F 93% 29.85 in 10.0 mi SW 3.5 mph - N/A   Clear
5:55 AM 47.1 °F 43.5 °F 87% 29.88 in 10.0 mi SW 6.9 mph - N/A   Clear
6:55 AM 43.0 °F 40.8 °F 92% 29.91 in 10.0 mi Calm Calm - N/A   Clear
7:55 AM 42.4 °F 42.1 °F 99% 29.93 in 10.0 mi Calm Calm - N/A   Clear
8:55 AM 52.5 °F 37.9 °F 58% 29.94 in 10.0 mi Calm Calm - N/A   Clear
9:55 AM 58.8 °F 34.5 °F 40% 29.95 in 10.0 mi WSW 9.2 mph - N/A   Clear
10:55 AM 62.8 °F 31.6 °F 31% 29.96 in 10.0 mi SW 6.9 mph - N/A   Clear
11:55 AM 67.3 °F 31.8 °F 27% 29.95 in 10.0 mi SSW 6.9 mph - N/A   Clear
12:55 PM 71.8 °F 28.9 °F 20% 29.90 in 10.0 mi SSW 11.5 mph - N/A   Clear
1:55 PM 73.8 °F 30.2 °F 20% 29.88 in 10.0 mi SSW 13.8 mph - N/A   Clear
2:55 PM 74.5 °F 31.3 °F 20% 29.87 in 10.0 mi South 13.8 mph - N/A   Clear
3:55 PM 73.6 °F 32.5 °F 22% 29.88 in 10.0 mi South 16.1 mph - N/A   Clear
4:55 PM 71.4 °F 34.2 °F 25% 29.88 in 10.0 mi South 10.4 mph - N/A   Clear
5:55 PM 62.8 °F 36.5 °F 38% 29.91 in 10.0 mi SSE 6.9 mph - N/A   Clear
6:55 PM 57.4 °F 36.9 °F 46% 29.94 in 9.0 mi SSE 3.5 mph - N/A   Clear
7:55 PM 55.2 °F 39.4 °F 55% 29.95 in 10.0 mi NNW 5.8 mph - N/A   Clear
8:55 PM 51.6 °F 39.6 °F 63% 29.96 in 10.0 mi ENE 6.9 mph - N/A   Clear
9:55 PM 51.3 °F 39.7 °F 65% 29.96 in 10.0 mi NE 6.9 mph - N/A   Clear
10:55 PM 50.0 °F 39.7 °F 68% 29.95 in 10.0 mi NE 6.9 mph - N/A   Clear